• In Deutschland
  • Länderverzeichnis
  • Für 7 Tage
  • Wassertemperatur
  • Satellitenkarten
  • Wetterkarte
  • Widgets
  • user-avatar
    Anmelden

    Stündliche Wetter Constantine

    Heute, 27 Juni, Dienstag

    Zeit Temperatur Niederschläge Wind Luftdruck Luftfeuchtigkeit
    00:00 +27°C° 0 mm 2 m/S 710 mmHg 43%
    01:00 +28°C° 0 mm 1 m/S 709 mmHg 42%
    02:00 +28°C° 0 mm 1 m/S 709 mmHg 42%
    03:00 +28°C° 0 mm 1 m/S 709 mmHg 42%
    04:00 +28°C° 0 mm 1 m/S 709 mmHg 40%
    05:00 +29°C° 0 mm 1 m/S 709 mmHg 38%
    06:00 +30°C° 0 mm 1 m/S 709 mmHg 36%
    07:00 +34°C° 0 mm 2 m/S 710 mmHg 30%
    08:00 +37°C° 0 mm 2 m/S 710 mmHg 24%
    09:00 +40°C° 0 mm 3 m/S 710 mmHg 18%
    10:00 +40°C° 0 mm 3 m/S 710 mmHg 17%
    11:00 +42°C° 0 mm 4 m/S 710 mmHg 17%
    12:00 +43°C° 0 mm 5 m/S 710 mmHg 16%
    13:00 +42°C° 0 mm 4 m/S 710 mmHg 16%
    14:00 +40°C° 0 mm 3 m/S 710 mmHg 17%
    15:00 +40°C° 0 mm 2 m/S 709 mmHg 18%
    16:00 +38°C° 0,1 mm 2 m/S 709 mmHg 21%
    17:00 +36°C° 0,1 mm 1 m/S 709 mmHg 25%
    18:00 +35°C° 0,1 mm 1 m/S 708 mmHg 29%
    19:00 +33°C° 0,2 mm 1 m/S 708 mmHg 31%
    20:00 +32°C° 0,2 mm 2 m/S 708 mmHg 33%
    21:00 +30°C° 0,2 mm 2 m/S 708 mmHg 35%
    22:00 +29°C° 0 mm 2 m/S 708 mmHg 35%
    23:00 +29°C° 0 mm 2 m/S 708 mmHg 36%

    Morgen, 28 Juni, Mittwoch

    Zeit Temperatur Niederschläge Wind Luftdruck Luftfeuchtigkeit
    00:00 +28°C° 0 mm 2 m/S 707 mmHg 37%
    01:00 +27°C° 0,2 mm 2 m/S 707 mmHg 38%
    02:00 +27°C° 0,2 mm 2 m/S 707 mmHg 40%
    03:00 +26°C° 0,2 mm 2 m/S 707 mmHg 41%
    04:00 +27°C° 0 mm 2 m/S 707 mmHg 37%
    05:00 +28°C° 0 mm 2 m/S 708 mmHg 33%
    06:00 +29°C° 0 mm 1 m/S 708 mmHg 29%
    07:00 +32°C° 0 mm 2 m/S 708 mmHg 26%
    08:00 +35°C° 0 mm 3 m/S 709 mmHg 22%
    09:00 +38°C° 0 mm 4 m/S 709 mmHg 19%
    10:00 +38°C° 0 mm 4 m/S 709 mmHg 18%
    11:00 +40°C° 0 mm 5 m/S 709 mmHg 17%
    12:00 +41°C° 0 mm 5 m/S 709 mmHg 16%
    13:00 +41°C° 0 mm 5 m/S 708 mmHg 18%
    14:00 +40°C° 0 mm 5 m/S 708 mmHg 20%
    15:00 +39°C° 0 mm 5 m/S 708 mmHg 21%
    16:00 +36°C° 0 mm 4 m/S 707 mmHg 28%
    17:00 +34°C° 0 mm 3 m/S 707 mmHg 35%
    18:00 +31°C° 0 mm 2 m/S 707 mmHg 42%
    19:00 +28°C° 0 mm 2 m/S 707 mmHg 52%
    20:00 +26°C° 0 mm 2 m/S 708 mmHg 63%
    21:00 +24°C° 0 mm 2 m/S 708 mmHg 74%
    22:00 +23°C° 0 mm 2 m/S 708 mmHg 75%
    23:00 +23°C° 0 mm 1 m/S 708 mmHg 76%

    übermorgen, 29 Juni, Donnerstag

    Zeit Temperatur Niederschläge Wind Luftdruck Luftfeuchtigkeit
    00:00 +22°C° 0 mm 1 m/S 708 mmHg 77%
    01:00 +22°C° 0 mm 1 m/S 707 mmHg 77%
    02:00 +22°C° 0 mm 1 m/S 707 mmHg 77%
    03:00 +21°C° 0 mm 1 m/S 707 mmHg 77%
    04:00 +22°C° 0 mm 1 m/S 707 mmHg 71%
    05:00 +23°C° 0 mm 1 m/S 708 mmHg 66%
    06:00 +25°C° 0 mm 1 m/S 708 mmHg 60%
    07:00 +27°C° 0 mm 1 m/S 708 mmHg 50%
    08:00 +30°C° 0 mm 1 m/S 708 mmHg 41%
    09:00 +32°C° 0 mm 1 m/S 709 mmHg 31%
    10:00 +36°C° 0 mm 2 m/S 709 mmHg 26%
    11:00 +38°C° 0 mm 2 m/S 709 mmHg 22%
    12:00 +40°C° 0 mm 3 m/S 709 mmHg 17%
    13:00 +40°C° 0 mm 4 m/S 709 mmHg 19%
    14:00 +39°C° 0 mm 5 m/S 708 mmHg 21%
    15:00 +38°C° 0 mm 6 m/S 708 mmHg 24%
    16:00 +35°C° 0 mm 4 m/S 708 mmHg 31%
    17:00 +33°C° 0 mm 3 m/S 708 mmHg 38%
    18:00 +30°C° 0 mm 2 m/S 708 mmHg 45%
    19:00 +28°C° 0 mm 2 m/S 708 mmHg 54%
    20:00 +26°C° 0 mm 2 m/S 708 mmHg 64%
    21:00 +24°C° 0 mm 2 m/S 708 mmHg 73%
    22:00 +23°C° 0 mm 1 m/S 707 mmHg 75%
    23:00 +22°C° 0 mm 1 m/S 707 mmHg 77%

    30 Juni, Freitag

    Zeit Temperatur Niederschläge Wind Luftdruck Luftfeuchtigkeit
    00:00 +21°C° 0 mm 1 m/S 706 mmHg 80%
    01:00 +21°C° 0 mm 1 m/S 706 mmHg 80%
    02:00 +21°C° 0 mm 1 m/S 705 mmHg 80%
    03:00 +20°C° 0 mm 1 m/S 705 mmHg 81%
    04:00 +22°C° 0 mm 1 m/S 705 mmHg 72%
    05:00 +24°C° 0 mm 1 m/S 706 mmHg 64%
    06:00 +25°C° 0 mm 1 m/S 706 mmHg 55%
    07:00 +29°C° 0 mm 2 m/S 707 mmHg 43%
    08:00 +34°C° 0 mm 3 m/S 707 mmHg 32%
    09:00 +39°C° 0 mm 5 m/S 708 mmHg 20%
    10:00 +40°C° 0 mm 5 m/S 708 mmHg 19%
    11:00 +41°C° 0 mm 5 m/S 708 mmHg 17%
    12:00 +42°C° 0 mm 6 m/S 707 mmHg 16%
    13:00 +41°C° 0 mm 6 m/S 707 mmHg 19%
    14:00 +40°C° 0 mm 5 m/S 707 mmHg 22%
    15:00 +39°C° 0 mm 5 m/S 706 mmHg 24%
    16:00 +35°C° 0 mm 5 m/S 706 mmHg 36%
    17:00 +32°C° 0 mm 4 m/S 706 mmHg 48%
    18:00 +28°C° 0 mm 3 m/S 706 mmHg 59%
    19:00 +27°C° 0 mm 3 m/S 707 mmHg 66%
    20:00 +25°C° 0 mm 4 m/S 708 mmHg 72%
    21:00 +22°C° 0 mm 4 m/S 709 mmHg 78%
    22:00 +22°C° 0,1 mm 3 m/S 709 mmHg 79%
    23:00 +21°C° 0,1 mm 2 m/S 709 mmHg 79%

    1 Juli, Samstag

    Zeit Temperatur Niederschläge Wind Luftdruck Luftfeuchtigkeit
    00:00 +21°C° 0,1 mm 2 m/S 709 mmHg 79%
    01:00 +20°C° 0,3 mm 2 m/S 709 mmHg 82%
    02:00 +21°C° 0,3 mm 1 m/S 709 mmHg 84%
    03:00 +21°C° 0,3 mm 1 m/S 709 mmHg 87%
    04:00 +21°C° 0,3 mm 1 m/S 709 mmHg 85%
    05:00 +21°C° 0,3 mm 1 m/S 709 mmHg 83%
    06:00 +21°C° 0,3 mm 1 m/S 709 mmHg 81%
    07:00 +21°C° 0,1 mm 2 m/S 710 mmHg 74%
    08:00 +23°C° 0,1 mm 2 m/S 710 mmHg 67%
    09:00 +24°C° 0,1 mm 2 m/S 711 mmHg 60%
    10:00 +25°C° 0,1 mm 3 m/S 711 mmHg 55%
    11:00 +27°C° 0,1 mm 3 m/S 711 mmHg 49%
    12:00 +28°C° 0,1 mm 3 m/S 711 mmHg 44%
    13:00 +28°C° 0 mm 4 m/S 711 mmHg 43%
    14:00 +28°C° 0 mm 4 m/S 711 mmHg 43%
    15:00 +27°C° 0 mm 5 m/S 711 mmHg 42%
    16:00 +26°C° 0,1 mm 4 m/S 711 mmHg 45%
    17:00 +25°C° 0,1 mm 4 m/S 711 mmHg 48%
    18:00 +23°C° 0,1 mm 4 m/S 711 mmHg 51%
    19:00 +21°C° 0,1 mm 3 m/S 712 mmHg 59%
    20:00 +20°C° 0,1 mm 3 m/S 712 mmHg 67%
    21:00 +19°C° 0,1 mm 2 m/S 713 mmHg 75%
    22:00 +18°C° 0 mm 2 m/S 712 mmHg 79%
    23:00 +18°C° 0 mm 2 m/S 712 mmHg 82%

    2 Juli, Sonntag

    Zeit Temperatur Niederschläge Wind Luftdruck Luftfeuchtigkeit
    00:00 +18°C° 0 mm 1 m/S 712 mmHg 86%
    01:00 +18°C° 0 mm 1 m/S 712 mmHg 86%
    02:00 +18°C° 0 mm 1 m/S 712 mmHg 86%
    03:00 +18°C° 0 mm 1 m/S 712 mmHg 87%
    04:00 +19°C° 0 mm 1 m/S 712 mmHg 84%
    05:00 +18°C° 0 mm 2 m/S 713 mmHg 81%
    06:00 +19°C° 0 mm 2 m/S 713 mmHg 77%
    07:00 +20°C° 0 mm 2 m/S 713 mmHg 68%
    08:00 +23°C° 0 mm 2 m/S 714 mmHg 59%
    09:00 +24°C° 0 mm 3 m/S 714 mmHg 50%
    10:00 +26°C° 0 mm 3 m/S 714 mmHg 46%
    11:00 +27°C° 0 mm 4 m/S 714 mmHg 43%
    12:00 +28°C° 0 mm 4 m/S 714 mmHg 39%
    13:00 +28°C° 0 mm 4 m/S 714 mmHg 40%
    14:00 +28°C° 0 mm 4 m/S 713 mmHg 42%
    15:00 +27°C° 0 mm 5 m/S 713 mmHg 44%
    16:00 +26°C° 0 mm 4 m/S 713 mmHg 49%
    17:00 +25°C° 0 mm 4 m/S 713 mmHg 54%
    18:00 +22°C° 0 mm 4 m/S 713 mmHg 59%
    19:00 +21°C° 0 mm 3 m/S 713 mmHg 67%
    20:00 +20°C° 0 mm 2 m/S 714 mmHg 75%
    21:00 +18°C° 0 mm 2 m/S 714 mmHg 83%
    22:00 +19°C° 0 mm 1 m/S 714 mmHg 84%
    23:00 +18°C° 0 mm 1 m/S 713 mmHg 85%
    Mehr zeigen